Total_Precipitation_Accumulation
0.00 0.00 0.00 0.00 0.00 0.00 0.00 0.00 0.00 0.00 0.00 0.00 0.00 0.00 0.00 0.00 0.00 0.02 0.04 0.10 0.16 0.10 0.10 0.06 0.06 0.03 0.00 0.00 0.00 0.00 0.00 0.00 0.00 0.00 0.00 0.00 0.00 0.00 0.00 0.00 0.00 0.00 0.00
0.00 0.00 0.00 0.00 0.00 0.00 0.00 0.00 0.00 0.00 0.00 0.00 0.00 0.00 0.00 0.00 0.00 0.01 0.03 0.07 0.11 0.11 0.11 0.09 0.05 0.03 0.01 0.00 0.00 0.00 0.00 0.00 0.00 0.00 0.00 0.00 0.00 0.00 0.00 0.00 0.00 0.00 0.00
0.00 0.00 0.00 0.00 0.00 0.00 0.00 0.00 0.00 0.00 0.00 0.00 0.00 0.00 0.00 0.00 0.00 0.01 0.04 0.08 0.13 0.12 0.14 0.12 0.05 0.04 0.02 0.00 0.00 0.00 0.00 0.00 0.00 0.00 0.00 0.00 0.00 0.00 0.00 0.00 0.00 0.00 0.00
0.00 0.00 0.00 0.00 0.00 0.00 0.00 0.00 0.00 0.00 0.00 0.00 0.00 0.00 0.00 0.00 0.00 0.00 0.03 0.10 0.12 0.14 0.11 0.10 0.07 0.05 0.05 0.02 0.01 0.00 0.00 0.00 0.00 0.00 0.00 0.00 0.00 0.00 0.00 0.00 0.00 0.00 0.00
0.00 0.00 0.00 0.00 0.00 0.00 0.00 0.00 0.00 0.00 0.00 0.00 0.00 0.00 0.00 0.00 0.00 0.00 0.00 0.07 0.24 0.16 0.12 0.15 0.12 0.09 0.10 0.06 0.04 0.02 0.00 0.00 0.00 0.00 0.00 0.00 0.00 0.00 0.00 0.00 0.00 0.00 0.00
0.00 0.00 0.01 0.00 0.00 0.00 0.00 0.00 0.02 0.01 0.00 0.00 0.00 0.00 0.00 0.00 0.01 0.02 0.01 0.03 0.10 0.43 0.26 0.15 0.30 0.33 0.19 0.18 0.09 0.05 0.04 0.02 0.01 0.00 0.00 0.00 0.00 0.00 0.00 0.00 0.00 0.00 0.00
0.00 0.00 0.01 0.04 0.02 0.01 0.00 0.01 0.01 0.01 0.01 0.01 0.00 0.00 0.00 0.02 0.02 0.03 0.04 0.03 0.05 0.10 0.54 0.63 0.21 0.32 0.38 0.25 0.30 0.23 0.12 0.05 0.05 0.04 0.02 0.01 0.01 0.00 0.00 0.00 0.00 0.00 0.00
0.00 0.00 0.02 0.06 0.04 0.02 0.01 0.00 0.01 0.02 0.00 0.00 0.01 0.00 0.00 0.01 0.02 0.03 0.06 0.09 0.05 0.04 0.08 0.51 0.92 0.46 0.31 0.36 0.36 0.44 0.39 0.20 0.08 0.07 0.07 0.04 0.02 0.01 0.00 0.00 0.01 0.01 0.00
0.00 0.00 0.00 0.00 0.00 0.01 0.08 0.04 0.01 0.01 0.01 0.03 0.04 0.03 0.02 0.01 0.01 0.01 0.03 0.07 0.10 0.06 0.07 0.11 0.26 0.64 0.66 0.40 0.45 0.61 0.69 0.77 0.38 0.20 0.15 0.10 0.06 0.03 0.03 0.06 0.07 0.08 0.05
0.00 0.00 0.00 0.00 0.00 0.00 0.04 0.06 0.06 0.02 0.03 0.07 0.11 0.16 0.18 0.16 0.10 0.09 0.09 0.10 0.11 0.13 0.14 0.09 0.16 0.28 0.30 0.49 0.38 0.36 0.47 0.31 0.34 0.38 0.33 0.22 0.14 0.11 0.13 0.14 0.15 0.19 0.20
0.00 0.00 0.00 0.00 0.00 0.00 0.02 0.09 0.07 0.03 0.04 0.05 0.14 0.33 0.80 0.27 0.20 0.21 0.16 0.15 0.09 0.11 0.12 0.09 0.10 0.18 0.30 0.21 0.21 0.22 0.41 0.48 0.35 0.27 0.30 0.25 0.23 0.27 0.30 0.31 0.30 0.28 0.30
0.00 0.00 0.00 0.00 0.00 0.00 0.01 0.17 0.24 0.13 0.30 0.35 0.86 0.75 0.75 0.71 0.36 0.50 0.50 0.23 0.14 0.12 0.12 0.14 0.12 0.14 0.15 0.29 0.41 0.38 0.34 0.34 0.36 0.37 0.40 0.38 0.37 0.37 0.33 0.34 0.33 0.35 0.37
0.00 0.00 0.00 0.00 0.00 0.00 0.00 0.06 0.11 0.11 0.36 0.34 0.45 0.42 0.25 0.34 0.31 0.43 0.95 0.69 0.50 0.11 0.13 0.13 0.13 0.12 0.10 0.09 0.18 0.25 0.25 0.25 0.27 0.32 0.36 0.34 0.33 0.29 0.25 0.26 0.28 0.27 0.29
0.00 0.00 0.00 0.00 0.00 0.00 0.00 0.00 0.04 0.15 0.16 0.16 0.29 0.43 0.21 0.22 0.56 0.36 0.57 0.63 0.63 0.36 0.13 0.11 0.10 0.15 0.20 0.24 0.22 0.22 0.22 0.21 0.20 0.19 0.19 0.20 0.18 0.15 0.16 0.20 0.20 0.18 0.19
0.00 0.00 0.00 0.00 0.00 0.00 0.00 0.00 0.00 0.00 0.05 0.20 0.16 0.08 0.54 0.35 0.47 0.53 0.46 0.63 0.28 0.51 0.41 0.20 0.17 0.26 0.35 0.27 0.33 0.38 0.35 0.30 0.29 0.19 0.13 0.12 0.13 0.11 0.07 0.06 0.03 0.03 0.04
0.00 0.00 0.00 0.00 0.00 0.00 0.00 0.00 0.00 0.00 0.00 0.00 0.02 0.09 0.34 0.29 0.35 0.39 0.25 0.51 0.49 0.53 0.66 0.65 0.52 0.38 0.41 0.45 0.29 0.23 0.29 0.28 0.25 0.24 0.18 0.16 0.16 0.11 0.13 0.17 0.21 0.21 0.16
0.00 0.00 0.00 0.00 0.00 0.00 0.00 0.00 0.00 0.00 0.00 0.00 0.00 0.00 0.10 0.16 0.09 0.24 0.20 0.24 0.44 0.40 0.51 0.55 0.45 0.34 0.38 0.33 0.25 0.17 0.16 0.19 0.17 0.14 0.12 0.10 0.10 0.07 0.03 0.03 0.02 0.03 0.04
0.00 0.00 0.00 0.00 0.00 0.00 0.00 0.00 0.00 0.00 0.00 0.00 0.00 0.00 0.00 0.00 0.00 0.00 0.04 0.03 0.10 0.19 0.18 0.25 0.23 0.17 0.16 0.15 0.11 0.10 0.05 0.04 0.03 0.02 0.02 0.01 0.00 0.00 0.00 0.00 0.00 0.00 0.00
0.00 0.00 0.00 0.00 0.00 0.00 0.00 0.00 0.00 0.00 0.00 0.00 0.00 0.00 0.00 0.00 0.00 0.00 0.00 0.00 0.00 0.00 0.00 0.00 0.00 0.00 0.00 0.00 0.00 0.00 0.00 0.00 0.00 0.00 0.00 0.00 0.00 0.00 0.00 0.00 0.00 0.00 0.00
0.00 0.00 0.00 0.00 0.00 0.00 0.00 0.00 0.00 0.00 0.00 0.00 0.00 0.00 0.00 0.00 0.00 0.00 0.00 0.00 0.00 0.00 0.00 0.00 0.00 0.00 0.00 0.00 0.00 0.00 0.00 0.00 0.00 0.00 0.00 0.00 0.00 0.00 0.00 0.00 0.00 0.00 0.00
0.00 0.00 0.00 0.00 0.00 0.00 0.00 0.00 0.00 0.00 0.00 0.00 0.00 0.00 0.00 0.00 0.00 0.00 0.00 0.00 0.00 0.00 0.00 0.00 0.00 0.00 0.00 0.00 0.00 0.00 0.00 0.00 0.00 0.00 0.00 0.00 0.00 0.00 0.00 0.00 0.00 0.00 0.00
0.00 0.00 0.00 0.00 0.00 0.00 0.00 0.00 0.00 0.00 0.00 0.00 0.00 0.00 0.00 0.00 0.00 0.00 0.00 0.00 0.00 0.00 0.00 0.00 0.00 0.00 0.00 0.00 0.00 0.00 0.00 0.00 0.00 0.00 0.00 0.00 0.00 0.00 0.00 0.00 0.00 0.00 0.01
0.00 0.00 0.00 0.00 0.00 0.00 0.00 0.00 0.00 0.00 0.00 0.00 0.00 0.00 0.00 0.00 0.00 0.00 0.00 0.00 0.00 0.00 0.00 0.00 0.00 0.00 0.00 0.00 0.00 0.00 0.00 0.00 0.00 0.00 0.00 0.00 0.00 0.00 0.00 0.00 0.00 0.00 0.00
0.00 0.00 0.00 0.00 0.00 0.00 0.00 0.00 0.00 0.00 0.00 0.00 0.00 0.00 0.00 0.00 0.00 0.00 0.00 0.00 0.00 0.00 0.00 0.00 0.00 0.00 0.00 0.00 0.00 0.00 0.00 0.00 0.00 0.00 0.00 0.00 0.00 0.00 0.00 0.00 0.00 0.00 0.00
0.00 0.00 0.00 0.00 0.00 0.00 0.00 0.00 0.00 0.00 0.00 0.00 0.00 0.00 0.00 0.00 0.00 0.00 0.00 0.00 0.00 0.00 0.00 0.00 0.00 0.00 0.00 0.00 0.00 0.00 0.00 0.00 0.00 0.00 0.00 0.00 0.00 0.00 0.00 0.00 0.00 0.00 0.00
0.00 0.00 0.00 0.00 0.00 0.00 0.00 0.00 0.00 0.00 0.00 0.00 0.00 0.00 0.00 0.00 0.00 0.00 0.00 0.00 0.00 0.00 0.00 0.00 0.00 0.00 0.00 0.00 0.00 0.00 0.00 0.00 0.00 0.00 0.00 0.00 0.00 0.00 0.00 0.00 0.00 0.00 0.00